Regional Weather Roundup
Issued by NWS

Home | Current Version | Previous Version | Text Only | Print | Product List | Glossary On
Versions: 1 2 3 4 5 6 7 8 9 10 11 12 13 14 15 16 17 18 19 20 21 22 23 24 25 26 27 28 29 30 31 32 33 34 35 36 37 38 39 40 41 42 43 44 45 46 47 48 49 50
000
ASUS43 KMKX 301311
RWRWI

WISCONSIN REGIONAL WEATHER ROUNDUP
NATIONAL WEATHER SERVICE MILWAUKEE/SULLIVAN WI
800 AM CDT THU MAR 30 2017

NOTE: "FAIR" INDICATES FEW OR NO CLOUDS BELOW 12,000 FEET WITH NO
SIGNIFICANT WEATHER AND/OR OBSTRUCTIONS TO VISIBILITY.

WIZ001-002-006>008-014>016-023>028-301400-
NORTHWEST WISCONSIN

CITY           SKY/WX    TMP DP  RH WIND       PRES   REMARKS
SUPERIOR ARPT  CLOUDY    34  32  94 E13       30.05S WCI  25
ASHLAND        CLOUDY    33  31  92 NE5       30.04F WCI  29
HAYWARD        CLOUDY    38  26  62 NE6       30.01S WCI  33
SIREN          CLOUDY    35  29  80 CALM      30.00F
CUMBERLAND     CLOUDY    36  28  75 NE9       29.98R WCI  29
RICE LAKE      CLOUDY    38  30  72 CALM      30.00R
CHETEK         CLOUDY    37  31  76 NE7       29.97F WCI  32
LADYSMITH      CLOUDY    38  31  77 NE8       30.00S WCI  32
EAU CLAIRE     CLOUDY    37  34  89 NE12      29.94F WCI  29
MENOMONIE      DRIZZLE   37  34  89 NE9       29.96S WCI  31
NEW RICHMOND   CLOUDY    37  32  81 NE12      29.96S WCI  30
OSCEOLA        CLOUDY    39  32  75 NE9       29.99F WCI  33
$$

WIZ003>005-009-010-017-018-301400-
NORTH CENTRAL WISCONSIN

CITY           SKY/WX    TMP DP  RH WIND       PRES   REMARKS
MANITOWISH WTR CLOUDY    33  27  79 E7        30.01F WCI  27
ARBOR VITAE    CLOUDY    34  29  82 SE8       30.00F WCI  27
WOODRUFF       CLOUDY    34  29  82 SE8       30.00F WCI  27
RHINELANDER    CLOUDY    34  29  82 E12       30.00F WCI  25
EAGLE RIVER    PTSUNNY   32  25  74 E9        30.01F WCI  24
LAND O LAKES   CLOUDY    33  26  76 E5        30.03F WCI  28
PHILLIPS       CLOUDY    35  31  85 E6        29.99S WCI  30
TOMAHAWK       CLOUDY    33  28  81 E6        30.00F WCI  27
MEDFORD        CLOUDY    33  31  93 E16       29.96S WCI  22
MERRILL        CLOUDY    33  31  91 E9        30.00S WCI  26
$$

WIZ029-030-035-036-043>047-301400-
CENTRAL WISCONSIN

CITY           SKY/WX    TMP DP  RH WIND       PRES   REMARKS
WAUSAU         CLOUDY    34  31  88 E10       29.98R WCI  26
MOSINEE        NOT AVBL
MARSHFIELD     LGT SNOW  34  32  92 E15       29.94F FOG     WCI  24
STEVENS POINT  CLOUDY    32  32 100 E14       29.98S WCI  22
WAUPACA        CLOUDY    37  34  92 NE6       29.99S WCI  32
WAUTOMA        LGT RAIN  35  33  92 NE16      29.94F WCI  25
WISC RAPIDS    CLOUDY    35  35 100 E13G20    29.95F WCI  26
CAMP DOUGLAS   LGT RAIN  36  34  93 E12       29.90S WCI  27
$$

WIZ011>013-019>022-031-037>040-048>050-301400-
NORTHEAST WISCONSIN

CITY           SKY/WX    TMP DP  RH WIND       PRES   REMARKS
ANTIGO         CLOUDY    32  30  93 E16       30.00S WCI  21
SHAWANO        LGT RAIN  35  33  91 NE13      30.03S WCI  27
OCONTO         CLOUDY    32  31  96 NE7       30.05R WCI  26
STURGEON BAY   LGT SNOW  34  30  85 E9        30.05F FOG     WCI  27
GREEN BAY      LGT SNOW  34  34 100 NE13      30.01F FOG     WCI  25
MANITOWOC      LGT RAIN  36  34  92 NE9       30.00F WCI  29
APPLETON       LGT SNOW  34  34 100 NE14      29.96S WCI  24
CLINTONVILLE   CLOUDY    32  32 100 E13       30.01S WCI  22
OSHKOSH        FLURRIES  35  32  88 NE14      29.94F WCI  26
$$

WIZ032>034-041-042-053>061-301400-
SOUTHWEST WISCONSIN

CITY           SKY/WX    TMP DP  RH WIND       PRES   REMARKS
LA CROSSE      CLOUDY    39  36  89 E10G21    29.88S FOG     WCI  32
SPARTA         CLOUDY    36  35  96 E16G22    29.89F FOG     WCI  26
VIROQUA        CLOUDY    37  36  97 E22       29.83F WCI  25
BOSCOBEL       CLOUDY    41  40  96 E13G21    29.84S
PRAIRIE DU CHI LGT RAIN  39  38  97 E8        29.81S WCI  33
PLATTEVILLE    CLOUDY    39  39 100 E16G25    29.79R WCI  31
$$

WIZ056-057-062-063-064-067-068-301400-
SOUTH CENTRAL WISCONSIN

CITY           SKY/WX    TMP DP  RH WIND       PRES   REMARKS
REEDSBURG      LGT RAIN  35  35 100 E12G18    29.87S WCI  27
BARABOO/DELLS  DRIZZLE   35  33  94 E15G21    29.87S WCI  25
LONE ROCK      LGT RAIN  39  35  86 E17G23    29.86R WCI  30
MINERAL POINT  LGT RAIN  39  39 100 E21       29.80S WCI  29
MADISON        LGT RAIN  37  35  92 E14       29.86S WCI  28
MIDDLETON      CLOUDY    39  38  99 E15G21    29.85S WCI  30
WATERTOWN      LGT RAIN  37  37 100 E18G25    29.86F WCI  26
MONROE         CLOUDY    37  36  93 NE13G23   29.79R WCI  29
JANESVILLE     LGT RAIN  39  39 100 E17G23    29.80F WCI  30
$$

WIZ051-052-058>065-066-070>072-301400-
SOUTHEAST WISCONSIN

CITY           SKY/WX    TMP DP  RH WIND       PRES   REMARKS
MILWAUKEE      LGT RAIN  38  35  89 E15       29.90R FOG     WCI  29
WAUKESHA       LGT RAIN  36  34  93 E17G29    29.89F FOG     WCI  25
MILWAUKEE/TIMM RAIN      36  30  80 E13G20    29.92R WCI  27
RACINE         LGT RAIN  38  35  89 E14       29.89S FOG     WCI  30
KENOSHA        LGT RAIN  38  37  97 E18       29.85F FOG     WCI  28
FOND DU LAC    LGT RAIN  36  31  82 E17G23    29.94F WCI  26
SHEBOYGAN      LGT RAIN  35  32  88 E14       29.96F WCI  26
WEST BEND      LGT RAIN  34  34 100 E15       29.92S WCI  24
JUNEAU         LGT RAIN  34  33  95 E15G22    29.90F WCI  24
$$

LSZ147-162-301400-
LAKE SUPERIOR

STATION/POSITION TIME  TEMP    WIND        PRES    WAVE
                       AIR SEA DIR/SP/G            HT/PER
                 (UTC) (F)     (DEG/KT/KT) (MB)    (FT/S)
DEVILS ISLAND    1200   35      60/  9/ 10 1018.9F
PORT WING        1240   35      50/ 11/ 13 1017.6F
SAXON HARBOR     1240   32      CALM  /  1 1017.6S
$$

LMZ867-665-643>646-301400-
LAKE MICHIGAN

STATION/POSITION TIME  TEMP    WIND        PRES    WAVE
                       AIR SEA DIR/SP/G            HT/PER
                 (UTC) (F)     (DEG/KT/KT) (MB)    (FT/S)
CHAMBERS ISLAND  1240   33      50/ 10/ 12 1017.9S
NORTHPORT PIER   1240   35      80/ 12/ 16 1018.3F
SISTER BAY       1236   36     110/  8/ 14   N/A
KEWAUNEE LAKESHO 1230   35      50/ 11/ 15 1016.4R
SHEBOYGAN LAKESH 1200   36      70/ 19/ 21 1015.6R
PORT WASHINGTON  1230   37      60/ 16/ 19 1014.6F
MILWAUKEE LAKESH 1250   37      60/ 16/ 21   N/A
KENOSHA   LAKESH 1200   38      90/ 16/ 21 1011.5
$$

TC  - TEMPERATURE IN CELSIUS
VSB - VISIBILITY IN STATUTE MILES
WCI - WIND CHILL INDEX
HX  - HEAT INDEX





USA.gov is the U.S. government's official web portal to all federal, state and local government web resources and services.